Location: *
(41.7492°S, 135.4150°W)
Time: 17:09:00
(UTC+00:00)

Cosmos 1862 Rocket - Pass Details

Date: 20 September 2021
Orbit: 605 x 633 km, 82.5° (Epoch: 15 October)

Event Time Altitude Azimuth Distance (km) Brightness Sun altitude
Rises 13:54:09 0° 187° (S) 2,921 7.1 -11.9°
Reaches altitude 10° 13:56:25 10° 184° (S) 2,003 6.2 -11.5°
Maximum altitude 14:00:51 75° 99° (E) 645 3.8 -10.6°
Drops below altitude 10° 14:05:11 10° 13° (NNE) 1,963 6.2 -9.8°
Sets 14:07:23 0° 11° (N) 2,856 7.0 -9.4°
